Regional Weather Roundup
Issued by NWS Pendleton, OR

Home | Current Version | Previous Version | Text Only | Print | Product List | Glossary On
Versions: 1 2 3 4 5 6 7 8 9 10 11 12 13 14 15 16 17 18 19 20 21 22 23 24 25 26 27 28 29 30 31 32 33 34 35 36 37 38 39 40 41 42 43 44 45 46 47 48 49 50
100
ASUS46 KPDT 252210
RWRPDT
PENDLETON REGIONAL WEATHER ROUNDUP
NATIONAL WEATHER SERVICE PENDLETON OREGON
200 PM PST SAT FEB 25 2017

NOTE: FAIR INDICATES FEW OR NO CLOUDS BELOW 12,000 FEET WITH NO
SIGNIFICANT WEATHER AND/OR OBSTRUCTIONS TO VISIBILITY.

# INDICATES UNOFFICIAL STATION AND DATA

WAZ520-252310-
EAST SLOPES OF WASHINGTON CASCADES

CITY            SKY/WX      TMP DP  RH  WIND    PRES   REMARKS
#CLE ELUM HS    N/A         35  21  56  SW7     29.99F
#CLE ELUM LAKE  N/A         32  21  63  NW2     30.11F
#GLENWOOD       N/A         38  24  57  SW7     30.16F
#MANASTASH CYN  N/A         39  18  42  N1      29.96F
#NELSON 3SW     N/A         32  22  66  NE1     30.36F
#NILE           N/A         39  22  50  W3      29.35F
#TEANAWAY 4NE   N/A         36  22  56  W6      N/A
#TROUT LAKE 1NE N/A         37  25  61  N7      30.16F
#TROUT LAKE 1E  N/A         39  24  54  SW1     30.10F
$$

WAZ521-252310-
SIMCOE HIGHLANDS

CITY            SKY/WX      TMP DP  RH  WIND    PRES   REMARKS
#BICKLETON HS   N/A         34  24  66  SW13    29.63F WCI 25
#CENTERVILLE 1SWN/A         35  28  75  W8      30.14F
#GOLDENDALE 1NE N/A         37  16  42  S3      N/A
#GOLDENDALE 4W  N/A         37   4  24  E7      30.08F
#GOODNOE HILLS  N/A         43  26  51  SW17    29.98F WCI 35
#LYLE 6NE       N/A         42  31  65  SW15    30.12F WCI 34
#PITT 4SE       N/A         35  27  72  CALM    30.19F
$$

WAZ026-252310-
KITTITAS VALLEY

CITY            SKY/WX      TMP DP  RH  WIND    PRES   REMARKS
ELLENSBURG AP   PTCLDY      35  20  54  CALM    30.02F
#ELLENSBURG CWU N/A         32  21  63  CALM    30.07F
#ELLENSBURG 3NE N/A         28  21  75  CALM    28.10F
#ELLENSBURG 1E  N/A         36  N/A N/A SE1     N/A
#KITTITAS 4N    N/A         34  24  66  CALM    30.03F
#KITTITAS 3S    N/A         28  21  75  CALM    30.14F
#THORP 6N       N/A         33  23  66  W15G31  30.15F WCI 23
$$

WAZ027-252310-
YAKIMA VALLEY

CITY            SKY/WX      TMP DP  RH  WIND    PRES   REMARKS
SUNNYSIDE AP    SUNNY       39  26  59  CALM    30.09F
YAKIMA AIRPORT  SUNNY       40  25  55  S6      30.06F
YAKIMA-VAGABOND SUNNY       38  22  52  W6      30.02F
#DONALD 2NE     N/A         44   3  18  S6      28.91F
#GRANDVIEW      N/A         42  25  51  SE2     30.13F
#MABTON         N/A         41  32  70  N2      30.08F
#MOXEE 2E       N/A         37   0  20  S5      29.98F
#NACHES 2SW     N/A         39  25  57  E1      30.05F
#TERRACE HTS    N/A         42  27  55  CALM    30.10F
#TOPPENISH      N/A         39  26  59  CALM    30.03F
#WEST VALLEY    N/A         38  25  59  SE1     30.11F
#W YAKIMA       N/A         40  26  57  SW1     30.12F
#WHITE SWAN 5E  N/A         39  26  59  CALM    30.14F
#WILEY CITY 3W  N/A         38  21  50  CALM    30.01F
$$

WAZ028-252310-
LOWER COLUMBIA BASIN...WASHINGTON

CITY            SKY/WX      TMP DP  RH  WIND    PRES   REMARKS
HANFORD         MOSUNNY     46  20  35  W13     30.06F WCI 40
PASCO           SUNNY       46  25  43  SW13    30.11F WCI 40
PROSSER AWOS    N/A         45  30  55  VRB3    30.11F
RICHLAND AWOS   SUNNY       47  30  51  S13     30.10F WCI 41
#BENTON CITY    N/A         44  30  58  SW1     30.02F
#CONNELL 5N     N/A         41  29  62  SW12    30.12F WCI 34
#CONNELL 5NW    N/A         40  31  70  SW10    30.08F
#ELTOPIA 6NW    N/A         41  30  65  SW9     29.05F
#KAHLOTUS       N/A         39  27  62  W20G26  30.11F WCI 29
#KENNEWICK 3S   N/A         43  29  57  S6      30.13F
#PATERSON       N/A         44  29  55  W10     30.11F
#SAGEMOOR 2W    N/A         42  30  62  SW13    29.95F WCI 35
#TOUCHET 2S     N/A         45  31  58  SW6     30.12F
$$

WAZ029-252310-
FOOTHILLS OF THE BLUES...WASHINGTON

CITY            SKY/WX      TMP DP  RH  WIND    PRES   REMARKS
WALLA WALLA AP  PTCLDY      43  25  49  SW6     30.08F
#CLYDE 6NW      N/A         39  27  62  SW7     30.13F
#DAYTON SCHOOL  N/A         39  17  40  SW6     30.08F
#LOWDEN 2SE     N/A         46  30  53  W2      30.07F
#PLEASANT VIEW 1N/A         38  28  67  S14     30.16F WCI 30
#PRESCOTT       N/A         42  29  60  SW3     30.12F
#WHITMAN COLLEGEN/A         42  27  55  W10     30.18F
#WAITSBURG 5S   N/A         39  29  67  W7      30.24F
#WALLA WALLA 5E N/A         43  27  53  SW10    N/A
#WALLA WALLA U  N/A         44  28  53  SW2     30.15F
#WHITMAN MISSIONN/A         45  29  53  W6      30.14F
$$

WAZ030-252310-
BLUE MOUNTAINS...WASHINGTON

CITY            SKY/WX      TMP DP  RH  WIND    PRES   REMARKS
#DIXIE 5SE      N/A         28  22  78  W6      29.94F
#SKI BLUEWOOD   N/A         27  20  74  S3      29.92F
$$

ORZ009-041-WAZ024-252310-
COLUMBIA RIVER GORGE

CITY            SKY/WX      TMP DP  RH  WIND    PRES   REMARKS
HOOD RIVER AP   PTCLDY      43  27  53  NW10    30.13F
THE DALLES AP   MOCLDY      48  27  44  NW5     30.13F
#ARLINGTON AIRPON/A         44  29  55  W12     30.14F WCI 38
#ARLINGTON HS   N/A         46  26  45  S1      30.06F
#CELILO DOT     N/A         40  25  55  CALM    N/A
#LYLE           N/A         47  30  51  NW14    30.15F WCI 41
#MOSIER 1S      N/A         44  16  32  CALM    30.09F
#MURDOCK        N/A         46  29  51  W9      30.14F
#RUFUS DOT      N/A         45  26  47  W12     N/A    WCI 39
#SMITHVILLE     N/A         47  32  56  N13     30.09F WCI 41

$$

ORZ510-252310-
NORTH CENTRAL OREGON

CITY            SKY/WX      TMP DP  RH  WIND    PRES   REMARKS
#CHENOWITH 1W   N/A         37  24  59  W23     N/A    WCI 26
#COW CYN RST AREN/A         36  23  59  SW8     N/A
#DUFUR 9E       N/A         36  26  67  W5      30.20F
#GRASS VALLEY 1SN/A         40  27  59  W7      30.19F
#KENT DOT       N/A         39  16  39  N7      N/A
#MAUPIN SCHOOL  N/A         48  25  40  W8      30.12F
#MORO SCHOOL    N/A         39  29  67  N9      30.14F
#SHANIKO 5WSW   N/A         35  17  47  N13     N/A    WCI 26
#SHANIKO 4NW    N/A         34  23  64  W9      30.03F
#TYGH VALLEY 2NEN/A         46  29  51  N1      30.14F
#WAPANITIA AIRPON/A         43  26  51  W9      30.17F
#WASCO DOT      N/A         42  22  45  S6      N/A
#WASCO 5NE      N/A         39  29  67  N6      30.15F
$$

ORZ511-252310-
CENTRAL OREGON

CITY            SKY/WX      TMP DP  RH  WIND    PRES   REMARKS
BEND AIRPORT    SUNNY       39  16  39  CALM    30.03F
MADRAS AIRPORT  PTCLDY      41  23  48  CALM    30.10F
PRINEVILLE AP   PTCLDY      39  21  48  VRB5    30.04F
REDMOND AIRPORT MOSUNNY     44  17  33  W8      30.04F
#ASHWOOD SCHOOL N/A         41  24  50  W3      30.02F
#BEND 1SW       N/A         38  21  50  S3      N/A
#BEND-AWBREY    N/A         41  23  48  W3      30.15F
#BEND-KIM LN    N/A         39  22  50  N2      30.11F
#CULVER         N/A         41  22  46  W1      30.08F
#CULVER 8W      N/A         43  15  32  SW2     30.05F
#LAKE BILLY CHINN/A         40  N/A N/A W3      30.14F
#POWELL BUTTE 3EN/A         39  21  48  NE2     N/A
#POWELL BUTTE   N/A         39  14  35  W5      29.98F
#WARM SPRINGS   N/A         45  27  49  CALM    30.05F

$$


ORZ509-252310-
EAST SLOPES OF OREGON CASCADES

CITY            SKY/WX      TMP DP  RH  WIND    PRES   REMARKS
SISTERS AWOS    N/A         39  19  44  W12     30.02F WCI 32
#BLUE BOX PASS  N/A         31  N/A N/A NW2     N/A
#CAMP SHERMAN   N/A         42  23  46  W5      30.21F
#LA PINE 4NW    N/A         36  15  42  N1      30.26F
#LAVA BUTTE DOT N/A         35  13  40  SW2     N/A
#SISTERS ODOT   N/A         40  N/A N/A S6      N/A
#SISTERS 3N     N/A         39  18  42  CALM    30.02F
#SUNRIVER       N/A         37  20  50  S3      30.20F
#TUMALO 3W      N/A         38  20  48  N3      30.05F
#WANOGA BUTTE D N/A         26  15  63  W8      N/A

$$

ORZ044-252310-
LOWER COLUMBIA BASIN...OREGON

CITY            SKY/WX      TMP DP  RH  WIND    PRES   REMARKS
HERMISTON       SUNNY       46  26  45  SW9     30.10F
#BOARDMAN SCHOOLN/A         47  27  45  SW8     30.11F
#BOARDMAN 8SW   N/A         46  29  51  SW13    30.11F WCI 40
#ECHO 8SW       N/A         45  26  47  W3      30.11F
#I-84 EX 198 DOTN/A         42  24  48  N8      N/A
#IONE SCHOOL    N/A         42  26  53  SW8     30.16F
#UMATILLA       N/A         46  28  49  CALM    30.05F
$$

ORZ507-252310-
NORTHERN FOOTHILLS OF THE BLUES

CITY            SKY/WX      TMP DP  RH  WIND    PRES   REMARKS
PENDLETON AIRPT MOCLDY      42  26  53  W13     30.07F WCI 35
#ADAMS 3WNW     N/A         40  28  62  W7      30.14F
#ATHENA         N/A         40  26  57  SW2     30.17F
#CAYUSE         N/A         39  27  62  W5      30.13F
#HELIX SCHOOL   N/A         41  24  50  N6      30.15F
#HELIX 3N       N/A         39  25  57  SW8     30.03F
#HOLDMAN 5SE    N/A         41  29  62  W6      30.07F
#HOLDMAN 6E     N/A         39  29  67  SW8     29.95F
#M-F FERNDALE   N/A         45  25  45  CALM    30.06F
#M-F GROVE ELEM N/A         43  22  43  W5      30.06F
#M-FREEWATER 5SEN/A         42  26  53  SW7     30.07F
#PENDLETON DNTN N/A         47  28  47  NW2     30.10F
#PDT AQUATIC CTRN/A         46  30  53  W8      30.10F
#PDT SUNRIDGE   N/A         43  28  55  NW7     30.10F
#PENDLETON 7NW  N/A         44  30  58  W3      32.08S
#PILOT ROCK 1S  N/A         39  23  52  CALM    30.08F
#PILOT ROCK     N/A         42  28  57  E3      30.08F
#TUTUILLA       N/A         42  27  55  SW1     30.14F
#UMAPINE 2E     N/A         46  30  53  NW2     30.07F
#WESTON SCHOOL  N/A         38  21  50  N2      29.95F

$$

ORZ508-252310-
SOUTHERN FOOTHILLS OF THE BLUES

CITY            SKY/WX      TMP DP  RH  WIND    PRES   REMARKS
LEXINGTON       PTCLDY      45  25  45  SW15    30.10F WCI 38
#AJAX           N/A         40  19  42  S8      30.20F
#CONDON SCHOOL  N/A         37  24  59  SW9     29.99F
#CONDON 5W      N/A         36  21  54  SW8     30.00F
#HEPPNER EOC    N/A         39  22  50  W10     30.09F
#HEPPNER 4NE    N/A         35  24  64  NW7     30.16F
#LEXINGTON 2SE  N/A         43  27  53  W10     30.05F
#MIKKALO        N/A         42  23  46  NW9     30.19F
#OLEX 4N        N/A         42  28  57  W13     30.07F WCI 35
#RUGGS 5NE      N/A         38  22  52  W8      30.20S
#RUGGS 2SW      N/A         37  25  61  NW13    30.18F WCI 29

$$

ORZ502-503-252310-
BLUE MOUNTAINS

CITY            SKY/WX      TMP DP  RH  WIND    PRES   REMARKS
MEACHAM         CLOUDY      31  19  61  VRB6    29.99F
#BATTLE MTN DOT N/A         30  15  53  CALM    N/A
#GREENHORN 9SW  N/A         34  20  56  NW2     30.03F
#HEPPNER 15SE   N/A         34  24  66  W1      30.26F
#LADD CYN SMT   N/A         31  19  61  SE7     N/A
#LADD CREEK ODOTN/A         35  19  52  S6      N/A
#LONG CREEK HS  N/A         32  25  75  CALM    N/A
#N POWDER DOT   N/A         35  21  56  W5      N/A
#PIKES PEAK     N/A         29  20  69  NW14    27.99S WCI 18
#TOLLGATE       N/A         23  21  92  S2      29.81F
#TROY SCHOOL    N/A         41  25  53  CALM    29.96F
#UKIAH          N/A         36  22  56  W2      30.09F
#WESTON 4E      N/A         31  24  75  S7      30.14F
$$

ORZ505-252310-
JOHN DAY BASIN

CITY            SKY/WX      TMP DP  RH  WIND    PRES   REMARKS
JOHN DAY        SUNNY       39  17  40  NW10    30.01F
#JOHN DAY KJDY  N/A         39  N/A N/A SW7     30.31F
#ANTELOPE 9ESE  N/A         45  24  43  SW6     N/A
#DAYVILLE SCHOOLN/A         42  17  36  S2      30.01F
#MITCHELL       N/A         40  24  52  CALM    30.19F
#MITCHELL 8NW   N/A         37  22  54  N1      29.98F
#MONUMENT HS    N/A         44  19  36  N3      30.03F
#MT. VERNON 5SE N/A         35  19  52  SW1     29.95F
#SPRAY SCHOOL   N/A         46  N/A N/A CALM    N/A
#WINLOCK        N/A         40  22  48  N10     29.99F
$$

ORZ506-252310-
OCHOCO AND JOHN DAY HIGHLANDS

CITY            SKY/WX      TMP DP  RH  WIND    PRES   REMARKS
#HORSE RIDGE DO N/A         36  14  40  W5      N/A
#PAULINA SCHOOL N/A         38  19  46  W1      N/A
#PINE MTN OBS   N/A         27  18  68  N2      N/A
#PRAIRIE CITY   N/A         41  20  43  NW6     30.19F
#SENECA         N/A         29  N/A N/A N1      N/A
#SENECA 9NW     N/A         32  18  56  SW2     30.27F
$$

ORZ049-252310-
GRANDE RONDE VALLEY

CITY            SKY/WX      TMP DP  RH  WIND    PRES   REMARKS
LA GRANDE       CLOUDY      39  21  48  CALM    30.02F
#COVE           N/A         37  22  54  CALM    30.06F
#COVE SCHOOL    N/A         37  21  52  CALM    30.04F
#COVE 6NW       N/A         39  21  48  CALM    30.16F
#ELGIN 3N       N/A         36  16  44  SW6     29.99F
#ELGIN 1E       N/A         37  21  52  CALM    N/A
#IMBLER SCHOOL  N/A         33  24  69  CALM    29.99F
#ISLAND CITY 4N N/A         47  38  71  SW1     30.19F
#UNION 1S       N/A         38  23  54  CALM    30.16F
$$

ORZ050-252310-
WALLOWA COUNTY

CITY            SKY/WX      TMP DP  RH  WIND    PRES   REMARKS
JOSEPH AIRPORT  PTCLDY      30  16  55  S5      29.98F
#IMNAHA SCHOOL  N/A         44  19  36  N6      30.04F
#IMNAHA 10S     N/A         29  19  66  CALM    30.11S
#JOSEPH 3N      N/A         31  12  45  NW1     30.01F
#JOSEPH 3W      N/A         30  11  44  CALM    29.81F
#LOSTINE        N/A         37  18  46  W1      29.96F
#LOSTINE 3SE    N/A         33  15  47  SW1     30.03F
#MT HOWARD 8000 N/A         13  10  87  W3      29.75S
#PROMISE 1S     N/A         32  21  63  E2      30.26F
#WALLOWA SCHOOL N/A         34  19  54  W1      29.99F



$$



USA.gov is the U.S. government's official web portal to all federal, state and local government web resources and services.